Find Starlink 32555

NORAD ID: 61918 Int'l Des: 2024-207 Owner: SPXS Country: US Constellation: starlink operational
LEOCIRCULAR

Current View

Loading 3D Globe...

About Starlink 32555

Starlink 32555 (NORAD 61918) is a starlink constellation satellite (v2 mini) launched Nov 11, 2024 by SPXS of US. It operates in LEO, CIRCULAR orbit with a mass of 730.00 kg.

Upcoming Passes

Passes for default location (London). Set your location on the main map for personalized predictions.

Altitude History

Loading altitude history...

Two-Line Element Set

1 61918U 24207G 26263.32184308 .00008047 00000-0 30152-3 0 9991
2 61918 42.9988 266.4402 0001550 280.1505 79.9171 15.27589241104444
Epoch: Sep 20, 2026 • Age: 12 hours

Current Status

Altitude 488.9 km
Apogee / Perigee N/A
Velocity 7.62 km/s
Sub-Earth Point -25.58°S, 179.68°E
Launch Date Nov 11, 2024
Age 1.8 years
Type internet

Technical Details

Classification Payload
Mass 730.00 kg
Dry Mass 700.00 kg
Length 0.30 m
Span 29.00 m
Shape ? Box + pan
Manufacturer SPXS
Bus Type Starlink V2M
Phase Status In Orbit
Owner/State SPXS/US

Most Searched